Sierra Vista, AZ

8:12 AM MST on October 19, 2017 (GMT -0700)
Sierra Vista Municipal-Libby Army Air Field

Weather History for KFHU - January, 2012

Change the Weather History Date:

Sunday, January 29, 2012

  Actual Average Record
Temperature  
Mean Temperature 50 °F -  
Max Temperature 64 °F 59 °F 86 °F (1998)
Min Temperature 37 °F 37 °F 24 °F (1990)
Degree Days  
Heating Degree Days 14    
Moisture  
Dew Point 21 °F    
Average Humidity 34    
Maximum Humidity 53    
Minimum Humidity 16    
Precipitation  
Precipitation 0.00 in - - ()
Sea Level Pressure  
Sea Level Pressure 30.20 in    
Wind  
Wind Speed 3 mph (SSE)    
Max Wind Speed 10 mph    
Max Gust Speed -    
Visibility 10 miles    
Events      
Averages and records for this station are not official NWS values.
T = Trace of Precipitation, MM = Missing Value Source: NWS Daily Summary

Daily Weather History Graph

Daily Weather History Graph

Search for Another Location

Airport or City:

Trip Planner

Search our weather history database for the weather conditions in past years. The results will help you decide how hot, cold, wet, or windy it might be!

Date:

Astronomy

Jan. 29, 2012 Rise Set
Actual Time 7:16 AM MST 5:52 PM MST
Civil Twilight 6:50 AM MST 6:18 PM MST
Nautical Twilight 6:21 AM MST 6:47 PM MST
Astronomical Twilight 5:52 AM MST 7:16 PM MST
Moon 10:37 AM MST (1/29) No Moon Set
Length of Visible Light 11h 28m
Length of Day
10h 36m
Waxing Crescent, 37% of the Moon is Illuminated
Jan 29
Waxing Crescent
Jan 30
First Quarter
Feb 7
Full
Feb 14
Last Quarter
Feb 21
New

Hourly Weather History & Observations

Time (MST) Temp. Windchill Dew Point Humidity Pressure Visibility Wind Dir Wind Speed Gust Speed Precip Events Conditions
12:56 AM 43.0 °F - 23.0 °F 45% 30.24 in 10.0 mi Calm Calm - N/A   Clear
1:56 AM 41.0 °F - 21.9 °F 47% 30.24 in 10.0 mi Calm Calm - N/A   Clear
2:56 AM 39.9 °F 37.8 °F 21.9 °F 49% 30.25 in 10.0 mi WNW 3.5 mph - N/A   Clear
3:56 AM 41.0 °F - 21.9 °F 47% 30.24 in 10.0 mi Calm Calm - N/A   Clear
4:56 AM 37.9 °F 34.4 °F 21.9 °F 53% 30.25 in 10.0 mi WSW 4.6 mph - N/A   Clear
5:56 AM 39.0 °F - 21.9 °F 50% 30.26 in 10.0 mi Calm Calm - N/A   Clear
6:56 AM 39.9 °F - 21.9 °F 49% 30.28 in 10.0 mi Calm Calm - N/A   Clear
7:56 AM 41.0 °F - 23.0 °F 49% 30.30 in 10.0 mi Calm Calm - N/A   Clear
8:56 AM 46.9 °F - 24.1 °F 41% 30.29 in 10.0 mi Calm Calm - N/A   Clear
9:56 AM 52.0 °F - 24.1 °F 34% 30.28 in 10.0 mi NE 5.8 mph - N/A   Clear
10:56 AM 57.0 °F - 24.1 °F 28% 30.25 in 10.0 mi SE 9.2 mph - N/A   Clear
11:56 AM 60.1 °F - 23.0 °F 24% 30.24 in 10.0 mi ESE 10.4 mph - N/A   Clear
12:56 PM 62.1 °F - 23.0 °F 22% 30.19 in 10.0 mi ESE 8.1 mph - N/A   Clear
1:56 PM 64.0 °F - 21.0 °F 19% 30.15 in 10.0 mi ESE 10.4 mph - N/A   Clear
2:56 PM 64.9 °F - 19.9 °F 18% 30.14 in 10.0 mi Variable 5.8 mph - N/A   Clear
3:56 PM 64.9 °F - 18.0 °F 16% 30.12 in 10.0 mi SSE 8.1 mph - N/A   Clear
4:56 PM 64.9 °F - 18.0 °F 16% 30.12 in 10.0 mi East 8.1 mph - N/A   Clear
5:56 PM 57.9 °F - 19.0 °F 22% 30.13 in 10.0 mi South 5.8 mph - N/A   Clear
6:56 PM 53.1 °F - 19.9 °F 27% 30.15 in 10.0 mi SE 5.8 mph - N/A   Clear
7:56 PM 48.9 °F - 19.0 °F 31% 30.17 in 10.0 mi WSW 4.6 mph - N/A   Clear
8:56 PM 54.0 °F - 19.0 °F 25% 30.14 in 10.0 mi Calm Calm - N/A   Clear
9:56 PM 46.9 °F - 19.0 °F 33% 30.13 in 10.0 mi Calm Calm - N/A   Clear
10:56 PM 48.0 °F - 19.9 °F 33% 30.12 in 10.0 mi Calm Calm - N/A   Clear
11:56 PM 46.0 °F 43.1 °F 18.0 °F 33% 30.12 in 10.0 mi WSW 5.8 mph - N/A   Clear